QPF
0.01 0.01 0.01 0.01 0.01 0.00 0.01 0.01 0.01 0.01 0.01 0.01 0.01 0.00 0.00 0.00 0.00 0.00 0.00 0.00 0.00 0.00 0.00 0.00 0.00 0.00 0.00 0.00 0.00 0.00 0.00 0.00 0.00 0.00 0.00 0.00 0.00 0.00 0.00 0.00 0.00 0.00 0.00 0.00
0.03 0.01 0.02 0.01 0.01 0.01 0.01 0.01 0.01 0.01 0.01 0.01 0.01 0.01 0.00 0.00 0.00 0.00 0.00 0.00 0.00 0.00 0.00 0.00 0.00 0.00 0.00 0.00 0.00 0.00 0.00 0.00 0.00 0.00 0.00 0.00 0.00 0.00 0.00 0.00 0.00 0.00 0.00 0.00
0.05 0.03 0.04 0.04 0.02 0.02 0.01 0.02 0.02 0.02 0.01 0.00 0.00 0.00 0.00 0.00 0.00 0.00 0.00 0.00 0.00 0.00 0.00 0.00 0.00 0.00 0.00 0.00 0.00 0.00 0.00 0.00 0.00 0.00 0.00 0.00 0.00 0.00 0.00 0.00 0.00 0.00 0.00 0.00
0.05 0.06 0.09 0.05 0.02 0.01 0.02 0.02 0.02 0.01 0.01 0.01 0.00 0.00 0.00 0.00 0.00 0.00 0.00 0.00 0.00 0.00 0.00 0.00 0.00 0.00 0.00 0.00 0.00 0.00 0.00 0.00 0.00 0.00 0.00 0.00 0.00 0.00 0.00 0.00 0.00 0.00 0.00 0.00
0.05 0.06 0.05 0.03 0.02 0.02 0.02 0.03 0.01 0.01 0.01 0.01 0.00 0.00 0.00 0.00 0.00 0.00 0.00 0.00 0.00 0.00 0.00 0.00 0.00 0.00 0.00 0.00 0.00 0.00 0.00 0.00 0.00 0.00 0.00 0.00 0.00 0.00 0.00 0.00 0.00 0.00 0.00 0.00
0.05 0.05 0.05 0.03 0.02 0.02 0.02 0.03 0.01 0.01 0.01 0.01 0.01 0.01 0.01 0.00 0.00 0.00 0.00 0.00 0.00 0.00 0.00 0.00 0.00 0.00 0.00 0.00 0.00 0.00 0.00 0.00 0.00 0.00 0.00 0.00 0.00 0.00 0.00 0.00 0.00 0.00 0.00 0.01
0.05 0.04 0.03 0.02 0.02 0.02 0.03 0.03 0.01 0.01 0.01 0.01 0.01 0.01 0.00 0.00 0.00 0.00 0.00 0.00 0.00 0.00 0.00 0.00 0.00 0.00 0.00 0.00 0.00 0.00 0.00 0.00 0.00 0.00 0.00 0.00 0.01 0.01 0.00 0.00 0.00 0.00 0.00 0.00
0.03 0.04 0.02 0.01 0.01 0.02 0.03 0.02 0.02 0.01 0.01 0.01 0.01 0.01 0.00 0.00 0.00 0.00 0.00 0.00 0.00 0.00 0.00 0.00 0.00 0.00 0.00 0.00 0.00 0.00 0.00 0.00 0.00 0.00 0.00 0.00 0.00 0.00 0.00 0.00 0.00 0.00 0.00 0.00
0.03 0.03 0.02 0.01 0.02 0.02 0.02 0.02 0.02 0.01 0.01 0.01 0.01 0.01 0.01 0.01 0.01 0.01 0.01 0.00 0.00 0.00 0.00 0.00 0.00 0.00 0.00 0.00 0.00 0.00 0.00 0.00 0.00 0.00 0.00 0.00 0.00 0.00 0.00 0.00 0.00 0.00 0.00 0.00
0.03 0.03 0.02 0.01 0.01 0.01 0.01 0.01 0.01 0.01 0.01 0.01 0.01 0.01 0.01 0.01 0.01 0.01 0.00 0.00 0.00 0.00 0.00 0.00 0.00 0.00 0.00 0.00 0.00 0.00 0.00 0.00 0.00 0.00 0.00 0.00 0.00 0.00 0.00 0.00 0.01 0.00 0.00 0.00
0.03 0.03 0.02 0.01 0.01 0.01 0.01 0.01 0.01 0.01 0.01 0.01 0.01 0.01 0.01 0.01 0.01 0.00 0.00 0.00 0.00 0.00 0.00 0.00 0.00 0.00 0.00 0.00 0.00 0.00 0.00 0.00 0.00 0.00 0.00 0.00 0.00 0.00 0.00 0.01 0.01 0.01 0.01 0.01
0.02 0.02 0.02 0.02 0.02 0.02 0.01 0.01 0.01 0.01 0.01 0.01 0.01 0.00 0.00 0.00 0.00 0.00 0.00 0.00 0.00 0.00 0.00 0.00 0.00 0.00 0.00 0.00 0.00 0.00 0.00 0.00 0.00 0.00 0.00 0.00 0.00 0.00 0.00 0.01 0.01 0.01 0.01 0.02
0.02 0.01 0.01 0.01 0.01 0.02 0.01 0.01 0.00 0.00 0.00 0.01 0.00 0.00 0.00 0.00 0.00 0.00 0.00 0.00 0.00 0.00 0.00 0.00 0.00 0.00 0.00 0.00 0.00 0.00 0.00 0.00 0.00 0.00 0.00 0.00 0.00 0.00 0.00 0.00 0.00 0.01 0.01 0.01
0.01 0.01 0.01 0.01 0.01 0.01 0.01 0.01 0.00 0.00 0.00 0.01 0.00 0.00 0.00 0.00 0.00 0.00 0.00 0.00 0.00 0.00 0.00 0.00 0.00 0.00 0.00 0.00 0.00 0.00 0.00 0.00 0.00 0.00 0.00 0.00 0.00 0.00 0.00 0.01 0.01 0.00 0.00 0.01
0.01 0.01 0.01 0.01 0.01 0.01 0.01 0.01 0.01 0.01 0.00 0.00 0.01 0.01 0.00 0.00 0.00 0.00 0.00 0.00 0.00 0.00 0.00 0.00 0.00 0.00 0.00 0.00 0.00 0.00 0.00 0.00 0.00 0.01 0.01 0.01 0.01 0.01 0.01 0.01 0.01 0.01 0.01 0.01
0.01 0.01 0.01 0.01 0.01 0.01 0.01 0.01 0.01 0.01 0.01 0.01 0.01 0.01 0.01 0.00 0.00 0.00 0.00 0.00 0.00 0.00 0.00 0.00 0.00 0.00 0.00 0.00 0.00 0.00 0.00 0.01 0.01 0.01 0.01 0.01 0.01 0.01 0.01 0.01 0.01 0.01 0.01 0.01
0.01 0.01 0.01 0.01 0.01 0.01 0.01 0.01 0.01 0.01 0.01 0.01 0.01 0.01 0.01 0.01 0.00 0.00 0.00 0.00 0.00 0.00 0.00 0.00 0.00 0.00 0.00 0.00 0.00 0.00 0.00 0.01 0.01 0.01 0.01 0.01 0.01 0.01 0.01 0.01 0.01 0.01 0.01 0.02
0.01 0.01 0.01 0.01 0.01 0.01 0.01 0.01 0.01 0.01 0.01 0.01 0.01 0.01 0.01 0.01 0.00 0.00 0.00 0.00 0.00 0.00 0.00 0.00 0.00 0.00 0.00 0.00 0.00 0.01 0.01 0.01 0.01 0.01 0.01 0.01 0.01 0.01 0.01 0.01 0.01 0.01 0.01 0.01
0.01 0.01 0.01 0.01 0.01 0.01 0.01 0.01 0.01 0.01 0.00 0.01 0.01 0.01 0.01 0.01 0.00 0.00 0.00 0.00 0.00 0.00 0.00 0.00 0.00 0.00 0.00 0.00 0.01 0.01 0.01 0.01 0.01 0.01 0.01 0.01 0.01 0.01 0.01 0.01 0.01 0.01 0.01 0.01
0.01 0.01 0.02 0.02 0.01 0.01 0.01 0.00 0.00 0.00 0.00 0.00 0.01 0.01 0.01 0.00 0.00 0.00 0.00 0.00 0.00 0.00 0.00 0.00 0.00 0.00 0.00 0.00 0.01 0.01 0.01 0.01 0.01 0.01 0.01 0.01 0.01 0.01 0.01 0.01 0.01 0.01 0.01 0.01
0.02 0.02 0.02 0.01 0.01 0.01 0.00 0.00 0.00 0.00 0.00 0.00 0.00 0.01 0.01 0.00 0.00 0.00 0.00 0.00 0.00 0.00 0.00 0.00 0.00 0.01 0.01 0.01 0.01 0.00 0.01 0.01 0.01 0.01 0.01 0.01 0.01 0.01 0.01 0.01 0.01 0.01 0.02 0.02
0.02 0.02 0.01 0.01 0.01 0.01 0.01 0.01 0.01 0.00 0.00 0.00 0.00 0.01 0.01 0.01 0.00 0.00 0.01 0.01 0.00 0.00 0.01 0.01 0.01 0.01 0.01 0.01 0.01 0.00 0.00 0.01 0.01 0.01 0.01 0.01 0.01 0.01 0.01 0.01 0.01 0.01 0.01 0.02
0.01 0.01 0.01 0.01 0.01 0.01 0.01 0.01 0.01 0.01 0.00 0.00 0.00 0.01 0.01 0.01 0.01 0.01 0.01 0.01 0.01 0.01 0.01 0.01 0.01 0.01 0.01 0.01 0.01 0.01 0.01 0.01 0.01 0.01 0.01 0.01 0.01 0.01 0.01 0.01 0.01 0.01 0.01 0.02
0.01 0.01 0.01 0.01 0.00 0.01 0.01 0.01 0.01 0.01 0.01 0.01 0.01 0.01 0.02 0.02 0.01 0.01 0.01 0.01 0.01 0.01 0.01 0.01 0.02 0.02 0.02 0.01 0.01 0.01 0.01 0.01 0.01 0.01 0.01 0.01 0.01 0.01 0.01 0.01 0.01 0.01 0.01 0.01
0.01 0.01 0.01 0.01 0.00 0.01 0.01 0.01 0.01 0.01 0.01 0.01 0.01 0.01 0.02 0.02 0.01 0.01 0.01 0.01 0.01 0.01 0.01 0.01 0.01 0.02 0.02 0.01 0.01 0.01 0.01 0.01 0.01 0.01 0.01 0.02 0.02 0.01 0.01 0.01 0.01 0.01 0.01 0.01
0.01 0.01 0.01 0.01 0.01 0.01 0.01 0.01 0.01 0.01 0.01 0.01 0.01 0.01 0.01 0.01 0.01 0.01 0.01 0.01 0.01 0.01 0.01 0.01 0.01 0.01 0.01 0.01 0.01 0.01 0.01 0.01 0.01 0.01 0.01 0.02 0.02 0.01 0.01 0.01 0.01 0.01 0.01 0.01
0.01 0.01 0.01 0.01 0.01 0.01 0.01 0.01 0.01 0.01 0.01 0.01 0.01 0.01 0.01 0.01 0.02 0.01 0.01 0.01 0.01 0.00 0.00 0.01 0.01 0.01 0.02 0.02 0.01 0.01 0.01 0.01 0.01 0.01 0.02 0.02 0.01 0.01 0.01 0.01 0.01 0.01 0.01 0.01
MSLP
1003.27 1002.35 1001.76 1001.48 1001.49 1001.72 1002.11 1002.60 1003.14 1003.70 1004.25 1004.80 1005.34 1005.85 1006.32 1006.74 1007.08 1007.31 1007.43 1007.43 1007.31 1007.12 1006.90 1006.69 1006.55 1006.52 1006.62 1006.88 1007.27 1007.79 1008.40 1009.07 1009.78 1010.50 1011.23 1011.96 1012.70 1013.44 1014.18 1014.93 1015.67 1016.39 1017.09 1017.75
1003.47 1002.57 1001.99 1001.71 1001.70 1001.93 1002.34 1002.88 1003.51 1004.20 1004.92 1005.66 1006.39 1007.09 1007.74 1008.29 1008.72 1009.01 1009.13 1009.10 1008.93 1008.66 1008.33 1008.02 1007.75 1007.59 1007.55 1007.66 1007.90 1008.26 1008.72 1009.25 1009.83 1010.43 1011.07 1011.72 1012.39 1013.08 1013.78 1014.49 1015.20 1015.91 1016.60 1017.26
1003.87 1003.07 1002.57 1002.35 1002.39 1002.65 1003.09 1003.68 1004.36 1005.12 1005.93 1006.75 1007.57 1008.35 1009.06 1009.66 1010.12 1010.42 1010.54 1010.50 1010.31 1010.01 1009.66 1009.30 1008.98 1008.75 1008.63 1008.63 1008.75 1008.98 1009.30 1009.68 1010.13 1010.61 1011.13 1011.69 1012.28 1012.90 1013.54 1014.20 1014.87 1015.53 1016.19 1016.82
1004.50 1003.86 1003.48 1003.36 1003.48 1003.81 1004.29 1004.89 1005.59 1006.36 1007.16 1007.97 1008.77 1009.53 1010.21 1010.78 1011.21 1011.49 1011.60 1011.56 1011.39 1011.12 1010.80 1010.47 1010.18 1009.95 1009.80 1009.75 1009.78 1009.91 1010.10 1010.36 1010.67 1011.03 1011.44 1011.90 1012.40 1012.94 1013.51 1014.11 1014.72 1015.33 1015.92 1016.51
1005.37 1004.90 1004.67 1004.68 1004.89 1005.27 1005.78 1006.39 1007.06 1007.77 1008.50 1009.23 1009.93 1010.59 1011.17 1011.65 1012.02 1012.26 1012.36 1012.34 1012.22 1012.02 1011.78 1011.53 1011.31 1011.12 1010.99 1010.93 1010.92 1010.97 1011.07 1011.22 1011.42 1011.67 1011.98 1012.34 1012.75 1013.22 1013.72 1014.24 1014.78 1015.31 1015.84 1016.34
1006.45 1006.15 1006.07 1006.19 1006.49 1006.92 1007.43 1008.01 1008.62 1009.24 1009.86 1010.45 1011.01 1011.52 1011.97 1012.34 1012.63 1012.81 1012.91 1012.92 1012.86 1012.76 1012.62 1012.48 1012.35 1012.24 1012.16 1012.10 1012.08 1012.08 1012.11 1012.18 1012.29 1012.45 1012.67 1012.95 1013.29 1013.68 1014.12 1014.57 1015.03 1015.48 1015.91 1016.32
1007.71 1007.55 1007.60 1007.82 1008.18 1008.63 1009.13 1009.65 1010.18 1010.68 1011.16 1011.61 1012.01 1012.37 1012.68 1012.93 1013.13 1013.27 1013.36 1013.41 1013.42 1013.40 1013.37 1013.33 1013.30 1013.26 1013.23 1013.20 1013.17 1013.15 1013.13 1013.14 1013.18 1013.28 1013.43 1013.65 1013.93 1014.26 1014.63 1015.01 1015.39 1015.76 1016.10 1016.41
1009.09 1009.06 1009.21 1009.49 1009.87 1010.31 1010.77 1011.23 1011.65 1012.04 1012.38 1012.68 1012.94 1013.16 1013.35 1013.50 1013.63 1013.74 1013.82 1013.89 1013.95 1014.00 1014.05 1014.10 1014.13 1014.15 1014.16 1014.15 1014.11 1014.07 1014.02 1013.99 1013.99 1014.04 1014.14 1014.32 1014.55 1014.83 1015.14 1015.46 1015.77 1016.06 1016.31 1016.53
1010.53 1010.61 1010.83 1011.14 1011.52 1011.93 1012.32 1012.69 1013.01 1013.29 1013.51 1013.69 1013.83 1013.94 1014.03 1014.11 1014.18 1014.25 1014.33 1014.41 1014.49 1014.58 1014.67 1014.75 1014.82 1014.87 1014.89 1014.88 1014.84 1014.77 1014.71 1014.65 1014.62 1014.63 1014.71 1014.84 1015.04 1015.27 1015.53 1015.79 1016.04 1016.25 1016.43 1016.57
1012.01 1012.17 1012.43 1012.75 1013.09 1013.43 1013.75 1014.02 1014.24 1014.41 1014.52 1014.60 1014.66 1014.69 1014.72 1014.74 1014.78 1014.82 1014.87 1014.94 1015.02 1015.11 1015.19 1015.27 1015.33 1015.37 1015.37 1015.34 1015.28 1015.20 1015.12 1015.04 1015.00 1014.99 1015.05 1015.15 1015.31 1015.50 1015.71 1015.92 1016.10 1016.26 1016.37 1016.46
1013.47 1013.69 1013.97 1014.27 1014.55 1014.81 1015.03 1015.20 1015.32 1015.39 1015.42 1015.42 1015.41 1015.39 1015.37 1015.36 1015.36 1015.37 1015.40 1015.43 1015.47 1015.52 1015.56 1015.60 1015.61 1015.61 1015.58 1015.52 1015.43 1015.34 1015.24 1015.16 1015.10 1015.09 1015.12 1015.20 1015.32 1015.46 1015.62 1015.78 1015.91 1016.01 1016.08 1016.13
1014.87 1015.14 1015.41 1015.66 1015.87 1016.04 1016.15 1016.21 1016.22 1016.20 1016.15 1016.09 1016.03 1015.97 1015.92 1015.88 1015.84 1015.82 1015.79 1015.77 1015.75 1015.73 1015.71 1015.67 1015.62 1015.56 1015.48 1015.39 1015.29 1015.19 1015.09 1015.00 1014.95 1014.92 1014.94 1014.98 1015.06 1015.16 1015.26 1015.36 1015.45 1015.51 1015.55 1015.58
1016.18 1016.46 1016.70 1016.89 1017.01 1017.07 1017.07 1017.01 1016.92 1016.81 1016.69 1016.58 1016.47 1016.37 1016.29 1016.21 1016.14 1016.06 1015.98 1015.89 1015.79 1015.69 1015.58 1015.47 1015.35 1015.24 1015.12 1015.01 1014.90 1014.80 1014.71 1014.63 1014.58 1014.55 1014.55 1014.56 1014.60 1014.65 1014.70 1014.74 1014.78 1014.81 1014.83 1014.86
1017.32 1017.59 1017.78 1017.89 1017.92 1017.86 1017.75 1017.58 1017.39 1017.20 1017.00 1016.83 1016.67 1016.53 1016.41 1016.29 1016.16 1016.03 1015.88 1015.72 1015.55 1015.36 1015.18 1014.99 1014.82 1014.67 1014.53 1014.41 1014.31 1014.22 1014.16 1014.11 1014.07 1014.04 1014.02 1014.00 1014.00 1013.99 1013.99 1013.99 1013.99 1014.00 1014.01 1014.04
1018.24 1018.46 1018.59 1018.61 1018.53 1018.37 1018.15 1017.89 1017.61 1017.33 1017.06 1016.83 1016.61 1016.43 1016.25 1016.08 1015.90 1015.71 1015.49 1015.26 1015.01 1014.76 1014.51 1014.27 1014.07 1013.89 1013.75 1013.64 1013.57 1013.52 1013.49 1013.46 1013.45 1013.43 1013.40 1013.36 1013.32 1013.27 1013.23 1013.19 1013.16 1013.15 1013.17 1013.21
1018.87 1019.02 1019.06 1018.99 1018.82 1018.56 1018.25 1017.90 1017.54 1017.19 1016.87 1016.57 1016.30 1016.06 1015.83 1015.60 1015.36 1015.11 1014.83 1014.53 1014.22 1013.91 1013.62 1013.36 1013.13 1012.95 1012.83 1012.75 1012.72 1012.71 1012.72 1012.74 1012.75 1012.75 1012.72 1012.67 1012.61 1012.53 1012.46 1012.39 1012.35 1012.34 1012.36 1012.43
1019.18 1019.23 1019.18 1019.02 1018.76 1018.43 1018.05 1017.64 1017.22 1016.81 1016.43 1016.08 1015.77 1015.47 1015.18 1014.90 1014.60 1014.28 1013.95 1013.60 1013.24 1012.90 1012.58 1012.30 1012.07 1011.91 1011.81 1011.77 1011.78 1011.82 1011.88 1011.94 1011.98 1012.00 1011.98 1011.93 1011.86 1011.78 1011.69 1011.62 1011.58 1011.58 1011.62 1011.71
1019.15 1019.10 1018.95 1018.71 1018.39 1018.00 1017.57 1017.12 1016.67 1016.22 1015.80 1015.41 1015.05 1014.70 1014.36 1014.02 1013.67 1013.30 1012.92 1012.53 1012.14 1011.77 1011.43 1011.15 1010.94 1010.79 1010.72 1010.71 1010.76 1010.85 1010.94 1011.04 1011.11 1011.16 1011.16 1011.13 1011.07 1011.00 1010.92 1010.86 1010.84 1010.85 1010.92 1011.04
1018.83 1018.67 1018.44 1018.13 1017.76 1017.34 1016.88 1016.41 1015.93 1015.47 1015.02 1014.60 1014.19 1013.80 1013.41 1013.02 1012.62 1012.21 1011.79 1011.37 1010.95 1010.57 1010.23 1009.95 1009.74 1009.61 1009.55 1009.57 1009.65 1009.76 1009.89 1010.02 1010.12 1010.20 1010.23 1010.23 1010.20 1010.15 1010.11 1010.08 1010.09 1010.13 1010.23 1010.37
1018.28 1018.03 1017.72 1017.36 1016.96 1016.52 1016.05 1015.57 1015.08 1014.60 1014.13 1013.68 1013.24 1012.81 1012.37 1011.94 1011.50 1011.05 1010.59 1010.15 1009.71 1009.32 1008.97 1008.69 1008.48 1008.36 1008.31 1008.34 1008.43 1008.56 1008.71 1008.86 1008.99 1009.10 1009.17 1009.21 1009.22 1009.22 1009.22 1009.24 1009.29 1009.38 1009.51 1009.68
1017.62 1017.29 1016.91 1016.51 1016.08 1015.63 1015.15 1014.66 1014.16 1013.66 1013.17 1012.69 1012.21 1011.73 1011.26 1010.78 1010.30 1009.82 1009.34 1008.87 1008.43 1008.02 1007.67 1007.39 1007.18 1007.05 1007.00 1007.02 1007.11 1007.24 1007.40 1007.57 1007.72 1007.87 1007.98 1008.07 1008.14 1008.20 1008.26 1008.34 1008.44 1008.57 1008.73 1008.93
1016.95 1016.54 1016.11 1015.67 1015.21 1014.73 1014.24 1013.73 1013.21 1012.68 1012.15 1011.63 1011.11 1010.59 1010.07 1009.55 1009.03 1008.52 1008.03 1007.54 1007.09 1006.68 1006.32 1006.03 1005.81 1005.67 1005.61 1005.63 1005.71 1005.84 1006.00 1006.18 1006.37 1006.55 1006.71 1006.86 1006.99 1007.12 1007.25 1007.39 1007.54 1007.72 1007.92 1008.14
1016.34 1015.87 1015.39 1014.91 1014.40 1013.89 1013.36 1012.81 1012.25 1011.68 1011.10 1010.52 1009.94 1009.37 1008.80 1008.24 1007.70 1007.16 1006.65 1006.16 1005.71 1005.29 1004.94 1004.64 1004.42 1004.27 1004.19 1004.20 1004.27 1004.39 1004.56 1004.76 1004.98 1005.20 1005.42 1005.63 1005.83 1006.03 1006.23 1006.44 1006.65 1006.87 1007.10 1007.34
1015.84 1015.31 1014.78 1014.24 1013.69 1013.12 1012.53 1011.92 1011.30 1010.66 1010.01 1009.37 1008.73 1008.10 1007.48 1006.89 1006.31 1005.77 1005.24 1004.75 1004.30 1003.90 1003.54 1003.25 1003.02 1002.87 1002.79 1002.79 1002.85 1002.98 1003.16 1003.38 1003.63 1003.90 1004.18 1004.46 1004.73 1005.01 1005.28 1005.54 1005.81 1006.07 1006.33 1006.60
1015.45 1014.87 1014.28 1013.68 1013.07 1012.43 1011.76 1011.07 1010.37 1009.65 1008.92 1008.21 1007.50 1006.82 1006.16 1005.53 1004.94 1004.38 1003.86 1003.37 1002.93 1002.54 1002.19 1001.91 1001.69 1001.54 1001.46 1001.45 1001.52 1001.66 1001.86 1002.11 1002.40 1002.71 1003.05 1003.40 1003.75 1004.09 1004.43 1004.75 1005.06 1005.36 1005.66 1005.94
1015.15 1014.52 1013.87 1013.21 1012.52 1011.80 1011.05 1010.28 1009.48 1008.68 1007.88 1007.09 1006.32 1005.59 1004.90 1004.25 1003.64 1003.08 1002.57 1002.10 1001.68 1001.30 1000.97 1000.70 1000.49 1000.34 1000.27 1000.27 1000.35 1000.50 1000.71 1000.99 1001.32 1001.69 1002.08 1002.49 1002.90 1003.31 1003.70 1004.07 1004.43 1004.76 1005.07 1005.37
1014.91 1014.23 1013.53 1012.80 1012.03 1011.24 1010.41 1009.55 1008.68 1007.80 1006.93 1006.09 1005.28 1004.51 1003.80 1003.14 1002.54 1001.99 1001.49 1001.04 1000.63 1000.28 999.96 999.70 999.50 999.36 999.29 999.29 999.37 999.53 999.77 1000.07 1000.43 1000.84 1001.28 1001.73 1002.19 1002.64 1003.08 1003.49 1003.87 1004.23 1004.56 1004.87
Thickness
5453 5463 5465 5472 5477 5481 5482 5482 5483 5492 5496 5502 5502 5504 5505 5506 5508 5510 5511 5512 5513 5513 5512 5513 5513 5512 5513 5512 5511 5510 5508 5506 5504 5501 5499 5497 5495 5492 5490 5488 5486 5483 5481 5478
5440 5453 5457 5459 5464 5472 5475 5476 5478 5481 5482 5490 5490 5490 5490 5492 5496 5497 5498 5499 5499 5500 5500 5500 5499 5499 5499 5498 5498 5497 5496 5494 5492 5489 5487 5485 5484 5481 5479 5477 5474 5472 5469 5467
5426 5437 5445 5440 5447 5456 5461 5464 5471 5475 5477 5477 5477 5480 5480 5481 5483 5484 5485 5486 5486 5486 5487 5487 5487 5487 5486 5486 5485 5485 5483 5481 5479 5478 5476 5474 5472 5470 5467 5465 5463 5460 5458 5456
5409 5422 5428 5434 5441 5449 5451 5452 5458 5463 5466 5467 5468 5466 5466 5468 5469 5470 5471 5472 5471 5471 5473 5474 5475 5475 5474 5473 5473 5472 5470 5469 5467 5465 5464 5462 5460 5458 5456 5453 5451 5449 5447 5445
5396 5403 5411 5424 5431 5433 5438 5438 5443 5449 5451 5452 5453 5453 5451 5453 5456 5457 5457 5458 5457 5458 5459 5460 5460 5461 5461 5460 5459 5458 5457 5456 5454 5453 5452 5450 5448 5446 5444 5442 5440 5438 5436 5435
5385 5393 5402 5415 5422 5426 5432 5426 5433 5437 5439 5440 5444 5441 5438 5440 5441 5442 5443 5444 5444 5444 5445 5446 5446 5447 5447 5446 5445 5444 5443 5443 5442 5441 5440 5438 5436 5434 5433 5431 5429 5427 5426 5424
5376 5378 5389 5401 5409 5419 5418 5420 5423 5425 5428 5430 5430 5431 5427 5426 5426 5427 5429 5430 5431 5431 5431 5431 5433 5434 5433 5432 5431 5431 5431 5430 5429 5428 5427 5426 5424 5423 5421 5419 5418 5416 5416 5415
5365 5370 5381 5391 5397 5400 5402 5406 5409 5412 5414 5414 5412 5413 5413 5413 5412 5413 5414 5415 5416 5416 5416 5417 5419 5420 5419 5418 5418 5418 5418 5417 5416 5415 5415 5414 5412 5410 5409 5408 5407 5406 5405 5404
5361 5366 5371 5376 5381 5385 5390 5393 5395 5397 5399 5400 5399 5398 5398 5398 5397 5398 5399 5400 5401 5401 5401 5403 5404 5406 5405 5404 5405 5405 5405 5404 5403 5402 5402 5401 5400 5399 5398 5396 5395 5395 5394 5394
5351 5355 5360 5364 5369 5373 5377 5379 5382 5384 5385 5387 5386 5385 5384 5384 5383 5384 5384 5385 5386 5387 5388 5388 5390 5391 5391 5392 5392 5392 5391 5390 5390 5390 5389 5388 5388 5387 5386 5385 5384 5385 5384 5384
5342 5346 5350 5353 5356 5360 5363 5365 5367 5369 5371 5371 5372 5370 5370 5369 5369 5370 5371 5371 5372 5373 5373 5373 5375 5376 5378 5379 5379 5379 5378 5378 5377 5377 5377 5376 5376 5375 5375 5375 5374 5375 5375 5374
5337 5338 5339 5341 5345 5348 5351 5351 5353 5355 5356 5356 5358 5357 5357 5356 5356 5357 5357 5358 5358 5358 5359 5360 5361 5362 5363 5365 5365 5365 5366 5366 5366 5365 5365 5365 5364 5364 5365 5364 5366 5366 5366 5366
5327 5329 5330 5331 5334 5336 5338 5339 5341 5342 5343 5343 5343 5344 5344 5343 5344 5343 5344 5345 5345 5346 5347 5347 5348 5349 5350 5351 5352 5352 5353 5353 5353 5354 5354 5353 5353 5353 5354 5355 5356 5357 5357 5358
5317 5320 5320 5321 5321 5323 5325 5326 5328 5328 5329 5331 5331 5331 5331 5331 5331 5331 5331 5332 5333 5334 5334 5335 5336 5337 5338 5339 5339 5340 5340 5342 5342 5342 5342 5342 5342 5342 5342 5342 5344 5346 5347 5348
5305 5308 5309 5309 5309 5311 5313 5314 5314 5314 5315 5317 5318 5319 5319 5319 5319 5319 5320 5321 5322 5322 5323 5323 5324 5325 5326 5327 5328 5328 5329 5330 5331 5331 5331 5331 5331 5331 5332 5332 5334 5335 5337 5337
5294 5297 5297 5298 5299 5300 5301 5302 5303 5303 5304 5305 5306 5307 5307 5307 5308 5308 5308 5309 5309 5310 5311 5312 5313 5314 5315 5315 5316 5316 5317 5319 5320 5320 5320 5320 5321 5321 5322 5323 5324 5325 5326 5327
5285 5286 5287 5287 5288 5289 5290 5291 5293 5294 5294 5295 5295 5296 5297 5297 5297 5296 5297 5297 5298 5300 5301 5301 5303 5304 5304 5305 5305 5305 5306 5307 5309 5310 5310 5310 5311 5312 5312 5312 5313 5315 5316 5318
5276 5278 5279 5279 5280 5281 5282 5283 5283 5284 5284 5285 5286 5286 5286 5285 5285 5286 5287 5287 5288 5290 5291 5292 5293 5295 5295 5295 5295 5296 5296 5297 5298 5299 5300 5301 5302 5302 5303 5303 5304 5305 5307 5309
5269 5270 5271 5272 5273 5273 5274 5274 5274 5275 5275 5276 5276 5276 5275 5275 5276 5277 5277 5278 5279 5281 5283 5284 5286 5286 5286 5286 5287 5287 5287 5288 5289 5290 5291 5293 5294 5293 5294 5294 5296 5297 5299 5301
5262 5263 5264 5264 5265 5265 5265 5266 5266 5266 5266 5266 5267 5267 5267 5267 5267 5268 5269 5270 5271 5273 5275 5276 5277 5277 5278 5278 5279 5279 5279 5280 5281 5282 5283 5284 5285 5285 5286 5287 5289 5291 5293 5295
5253 5255 5256 5256 5257 5257 5258 5258 5258 5258 5259 5259 5259 5259 5259 5260 5260 5261 5262 5263 5266 5267 5268 5269 5270 5270 5270 5271 5272 5272 5273 5273 5274 5275 5276 5277 5277 5279 5280 5281 5283 5286 5288 5290
5245 5246 5247 5248 5249 5249 5250 5250 5251 5251 5252 5252 5253 5253 5253 5254 5254 5255 5257 5258 5260 5262 5262 5263 5263 5264 5265 5266 5266 5266 5267 5268 5268 5269 5270 5271 5272 5274 5275 5277 5279 5281 5283 5286
5238 5239 5240 5241 5242 5242 5243 5243 5244 5245 5246 5247 5247 5248 5248 5249 5250 5251 5253 5254 5255 5257 5258 5258 5259 5260 5261 5260 5260 5260 5261 5262 5263 5264 5265 5267 5268 5269 5271 5273 5275 5277 5280 5282
5232 5233 5234 5234 5235 5236 5237 5238 5240 5241 5241 5242 5243 5244 5244 5245 5246 5247 5248 5250 5252 5253 5253 5254 5256 5256 5256 5255 5255 5256 5257 5258 5259 5260 5261 5263 5264 5266 5267 5269 5272 5275 5277 5280
5226 5227 5228 5229 5230 5232 5233 5234 5235 5236 5238 5238 5239 5240 5241 5242 5242 5243 5244 5245 5247 5248 5249 5250 5251 5252 5251 5251 5252 5252 5253 5255 5256 5257 5258 5260 5261 5263 5265 5267 5270 5273 5276 5279
5222 5223 5224 5225 5226 5228 5229 5230 5231 5232 5234 5235 5236 5237 5238 5239 5239 5240 5241 5242 5243 5244 5245 5245 5246 5247 5248 5248 5249 5250 5251 5252 5254 5255 5256 5258 5259 5261 5263 5266 5268 5271 5275 5278
5218 5220 5221 5222 5224 5225 5226 5227 5228 5229 5230 5231 5232 5234 5235 5236 5237 5237 5238 5239 5240 5241 5242 5243 5244 5245 5245 5246 5248 5249 5250 5252 5253 5254 5255 5257 5258 5260 5263 5265 5268 5271 5274 5278